www.pogodaiklimat.ru

Погода и климат >> Архив погоды >> Россия >> Ханты-Мансийский АО >> Игрим


ПОГОДА в Игриме

  • Прогноз погоды в Игриме
  • Монитор погоды в Игриме

АРХИВ ПОГОДЫ в Игриме

Время (UTC), дата Ветер
(напр.,м/с)
 
Видим.   Явления Облачность Т
(С)
Тd
(С)
f
(%)
Тe
(С)
Тes
(С)
Комфортность P
(гПа)
Po
(гПа)
Тmin
(С)
Tmax
(С)
R
(мм)
R24
(мм)
S
(см)
18 11.09 штиль 0 10 км слаб. ливневой дождь 10 баллов +10.1 +8.7 91 +9 +9 1019.5 1016.0
21 11.09 штиль 0 10 км слаб. ливневой дождь 10/4 600 м
[Cb cap Ac und]
+9.0 +8.5 97 +8 +8 1018.3 1014.7
00 12.09 штиль 0 10 км слаб. ливневой дождь 10 баллов +8.8 +8.7 99 +8 +8 1018.3 1014.7
03 12.09 С 5 10 км {ливн. осадки, дождь} 10/10 120 м
[St]
+8.8 +8.6 99 +5 +5 1018.8 1015.2 +8.5 3
06 12.09 С 3 20 км {ливн. осадки, дождь} 10/8 210 м
[St Ac und]
+8.8 +8.0 95 +6 +6 1022.3 1018.7 +7.8
09 12.09 С 2 20 км 10/8 330 м
[St Ac und]
+9.8 +7.7 87 +8 +8 1023.6 1020.0
12 12.09 штиль 0 20 км 9/4 600 м
[Sc Ac trans Ci fib]
+11.2 +7.9 80 +11 +11 1022.2 1018.7
15 12.09 Ю 2 20 км 8/4 600 м
[Sc Ac trans]
+10.2 +8.1 87 +9 +9 1019.2 1015.7 +12.1
18 12.09 Ю 2 20 км 8/0
[Ac trans]
+8.8 +7.8 93 +7 +7 1017.4 1013.8
21 12.09 Ю 2 20 км 10/0
[Ac und]
+9.6 +8.8 95 +8 +8 1014.9 1011.4
00 13.09 Ю 2 20 км 6/0
[Ac trans]
+9.0 +8.5 97 +7 +7 1012.8 1009.3
03 13.09 Ю 2 20 км 10/3 300 м
[St Ac trans Ci fib]
+10.0 +9.6 97 +8 +9 1011.3 1007.8 +8.5
06 13.09 З 4 20 км 8/5 300 м
[St Ac trans Ci fib]
+15.2 +11.8 80 +14 +15 1010.2 1006.7
09 13.09 З 4 20 км 8/8 600 м
[Sc diur, vesp]
+18.4 +12.6 69 +19 +20 1010.1 1006.7
12 13.09 штиль 0 20 км 7 баллов +17.8 +13.3 75 +18 +18 1010.1 1006.7
15 13.09 З 2 20 км 8/0
[Ac trans]
+14.4 +13.1 92 +14 +14 1008.1 1004.7 +18.8
18 13.09 ЮЗ 2 20 км 10 баллов +12.4 +11.9 97 +11 +11 1008.8 1005.3
21 13.09 З 2 20 км 6/0
[Ci fib]
+11.2 +10.7 97 +10 +10 1008.8 1005.3
00 14.09 штиль 0 4000 м дымка 7 баллов +9.0 +8.5 97 +8 +8 1008.8 1005.3
03 14.09 ЮВ 1 4000 м дымка {туман} 9/4 300 м
[St Ac trans Ci fib]
+9.0 +8.6 97 +8 +8 1007.4 1003.9 +8.0
06 14.09 ЮЗ 1 20 км 7 баллов +14.3 +13.3 94 +15 +16 1007.5 1004.0
09 14.09 штиль 0 20 км 7 баллов +16.7 +12.4 76 +17 +18 1007.4 1004.0
12 14.09 СВ 3 20 км 9 баллов +16.0 +13.5 85 +16 +16 1007.4 1004.0
15 14.09 В 2 20 км {ливн. осадки} 8/3 300 м
[Sc Ac trans]
+13.0 +12.3 96 +12 +12 1007.6 1004.1 +17.0 0.0
18 14.09 СВ 1 10 км {ливн. осадки} 6/0
[Ac trans]
+10.6 +10.4 99 +10 +10 1008.8 1005.3
21 14.09 штиль 0 4000 м дымка 5/5 200 м
[St]
+10.2 +10.2 100 +9 +9 1006.2 1002.7
00 15.09 ЮВ 1 10 км слаб. дождь 10/4 600 м
[Sc As op]
+11.6 +11.6 100 +11 +11 1004.8 1001.3
03 15.09 Ю 2 10 км слаб. дождь 10/4 600 м
[Sc As op]
+12.0 +12.0 100 +11 +11 1002.6 999.2 +9.9 1
06 15.09 Ю 2 20 км {дождь} 10/0
[Ac und]
+13.6 +13.0 96 +13 +13 1002.1 998.7
09 15.09 ЮЗ 2 20 км 10/6 600 м
[Sc Ac und]
+17.0 +12.5 75 +17 +17 1002.1 998.7
12 15.09 ЮЗ 2 20 км 8/0
[Ac trans Ci fib]
+17.0 +9.4 61 +17 +18 1002.1 998.7
15 15.09 ЮЗ 3 20 км 8/4 600 м
[Cb cap Ac trans]
+14.4 +11.4 82 +13 +13 999.8 996.4 +18.0 0.0
18 15.09 Ю 1 20 км 10/0
[Ac und]
+10.9 +9.5 91 +11 +11 999.5 996.0
21 15.09 ЮЗ 3 20 км 10/0
[Ac und]
+9.4 +8.8 96 +7 +7 999.5 996.0
00 16.09 Ю 1 20 км 10 баллов +7.4 +6.7 95 +6 +6 999.5 996.0
03 16.09 ЮЗ 2 20 км ясно +7.8 +6.7 93 +6 +6 999.4 995.9 +7.1
06 16.09 ЮЗ 5 20 км 5 баллов +11.9 +2.9 54 +10 +11 999.5 996.0
09 16.09 ЮЗ 5 20 км 6/6 600 м
[Sc]
+13.1 +2.0 47 +11 +12 999.4 996.0
12 16.09 ЮЗ 5 20 км 6 баллов +12.0 +2.2 51 +10 +10 999.5 996.0
15 16.09 ЮЗ 2 20 км 6/0
[Ci fib]
+8.7 +3.6 70 +7 +7 998.3 994.8 +13.5
18 16.09 штиль 0 20 км 2 балла +4.2 +3.2 93 +3 +3 999.6 996.0
21 16.09 штиль 0 20 км ясно +3.5 +3.1 97 +2 +2 998.3 994.7
00 17.09 штиль 0 20 км ясно +0.9 +0.6 98 -1 -1 996.9 993.3
03 17.09 штиль 0 20 км 6/0
[Ci fib]
+3.0 +1.5 90 +2 +2 995.4 991.9 +0.9
06 17.09 Ю 2 20 км 7 баллов +8.6 +4.4 75 +7 +8 995.5 992.0
15 17.09 Ю 1 20 км {ливн. осадки} 10/6 900 м
[Sc Ac und]
+8.4 +7.1 92 +8 +8 994.6 991.1 +13.0 0.0
18 17.09 Ю 1 20 км 7 баллов +7.3 +6.6 95 +6 +6 995.5 992.0
21 17.09 штиль 0 20 км 7 баллов +7.8 +6.4 91 +7 +7 995.5 992.0
00 18.09 Ю 2 20 км в посл. час ливневой дождь 7 баллов +6.8 +6.8 100 +4 +4 995.5 992.0
03 18.09 ЮВ 3 10 км 10/10 90 м
[St]
+7.0 +7.0 100 +4 +4 994.2 990.7 +6.6 0.4
06 18.09 ЮВ 3 10 км слаб. дождь 10 баллов +8.0 +8.0 100 +5 +5 995.5 992.0
09 18.09 ЮЗ 2 20 км {дождь} 10/10 360 м
[Sc]
+8.8 +7.1 89 +7 +7 995.5 992.0
12 18.09 ЮВ 2 20 км 7 баллов +10.8 +8.7 87 +9 +10 995.5 992.0

 

Местоположение метеостанции Игрим (Ханты-Мансийский АО, Россия): широта 63.20 долгота 64.45 высота над уровнем моря 29 м.

В архиве по умолчанию представлена погода в Игриме за последнюю неделю. Архивные данные за месяц целиком и за предыдущие месяцы, начиная с января 2011 года, Вы можете получить, выбрав интересующий диапазон дат из раскрывающегося списка и нажав кнопку "Ввод!".


*Определитесь, кто Вы:
робот инопланетянин человек

Внимание! Время в таблицах - всемирное. Для получения местного времени необходимо прибавить поправку, которая равна 5 ч.

Смотрите также архив погоды в соседних городах и на ближайших метеорологических станциях:

Погода в Березово (Ханты-Мансийский АО, Россия) (85 км)
Погода в Октябрьском (Ханты-Мансийский АО, Россия) (116 км)
Погода в Сосьве (Ханты-Мансийский АО, Россия) (127 км)
Погода в Вонъегане (Ханты-Мансийский АО, Россия) (141 км)
Погода в Казым-Мысе (Ханты-Мансийский АО, Россия) (150 км)
Погода в Казыме (Ханты-Мансийский АО, Россия) (150 км)
Погода в Агирише (Ханты-Мансийский АО, Россия) (160 км)
Погода в Няксимволе (Ханты-Мансийский АО, Россия) (201 км)
Погода в Талинке (Ханты-Мансийский АО, Россия) (211 км)
Погода в Саранпауле (Ханты-Мансийский АО, Россия) (213 км)

Пояснения к столбцам:

Ветер - указаны скорость ветра в м/с - средняя за 10 мин, порывы в срок и между сроками (в фигурных скобках) и направление, откуда дует ветер: С - северный, СВ - северо-восточный, В - восточный, ЮВ - юго-восточный, Ю - южный, ЮЗ - юго-западный, З - западный, СЗ - северо-западный.
Видимость - горизонтальная дальность видимости в метрах или километрах. При видимости от 1 до 10 км при отсутствии осадков обычно наблюдается дымка, при ухудшении видимости до 1 км и менее - туман. В сухую погоду видимость может ухудшаться дымом, пылью или мглою.
Явления - указаны атмосферные явления, наблюдавшиеся в срок или в последний час перед сроком; фигурными скобками обозначены явления, наблюдавшиеся между сроками (за 1-3 часа до срока); квадратными скобками обозначены град или гололедные отложения с указанием их диаметра в мм.
Облачность - указаны через наклонную черту общая и нижняя облачность в баллах и высота нижней границы облаков в метрах; квадратными скобками обозначены формы облаков: Ci - перистые, Cs - перисто-слоистые, Cc - перисто-кучевые, Ac - высококучевые, As - высокослоистые, Sc - слоисто-кучевые, Ns - слоисто-дождевые, Cu - кучевые, Cb - кучево-дождевые. Подробнее классификацию облаков см. в Атласе облаков (PDF).
T - Температура воздуха - температура, измеренная на высоте 2 м над землей.
Td - Температура точки росы - температура, при понижении до которой содержащийся в воздухе водяной пар достигнет насыщения.
f - Относительная влажность воздуха - влажноcть воздуха, измеренная на высоте 2 м над землей.
Te - Эффективная температура - температура, которую ощущает одетый по сезону человек в тени. Характеристика душности погоды. При расчете учитывается влияние влажности воздуха и скорости ветра на теплоощущения человека.
Tes - Эффективная температура на солнце - температура, которую ощущает человек, с поправкой на солнечный нагрев. Характеристика знойности погоды. Зависит от высоты солнца над горизонтом, облачности и скорости ветра. Ночью, в пасмурную погоду, а также при ветре 12 м/с и более поправка равна нулю.
P - Атмосферное давление - приведенное к уровню моря атмосферное давление.
Po - Атмосферное давление - измеренное на уровне метеостанции атмосферное давление.
Tmin - Минимальная температура - минимум температуры воздуха на высоте 2 м над землей.
Tmax - Максимальная температура - максимум температуры воздуха на высоте 2 м над землей.
R - Количество осадков - Количество выпавших осадков за период времени, мм. При наведении курсора мыши на число - период времени, за который выпало указанное количество осадков.
R24 - Количество осадков - Количество выпавших осадков за 24 часа, мм.
S - Снежный покров - Высота снежного покрова, см. При наведении курсора мыши на число - состояние снежного покрова и степень покрытия местности в баллах.